Lid_Strength_Index
-0 -0 1 0 -0 -0 -0 0 0 0 0 0 0 1 1 1 1 0 -0 -0 -1 -1 -1 0 -0 -0 4 10 8 3 -1 0 4 6 8 9 10 11 13 12 12 11 12 11 10 11 11
-0 -0 -0 0 1 0 -0 -0 -0 -0 -0 0 0 1 1 1 0 0 -0 -0 -1 -1 -0 0 0 0 8 11 4 3 4 6 6 7 8 9 9 9 11 12 13 12 12 11 11 12 12
1 -0 0 0 -0 1 1 -0 -1 -0 -0 0 0 0 1 1 0 0 -0 -0 -1 -1 -0 0 1 3 8 8 3 3 5 6 6 7 8 8 8 10 11 12 11 12 13 13 13 13 13
1 1 0 0 0 0 0 1 1 -0 -0 0 0 0 1 1 1 0 -0 -0 -0 -0 0 0 0 5 9 6 4 4 5 6 6 7 7 7 8 9 11 11 12 14 15 16 14 13 13
0 1 1 1 0 0 1 0 0 1 1 1 1 1 0 0 1 0 -0 -0 1 0 0 0 5 8 9 5 7 7 7 7 7 8 8 7 9 11 12 14 16 17 18 18 15 13 14
0 1 1 1 1 -0 1 1 0 0 1 1 2 2 2 1 1 1 0 0 1 2 3 3 5 10 9 10 9 8 8 8 9 10 10 11 12 14 15 16 18 18 19 18 18 15 15
0 1 1 1 1 1 0 1 1 1 1 0 1 1 1 1 1 1 2 5 7 7 7 8 9 9 9 9 8 9 8 9 9 12 14 13 15 16 15 15 16 17 18 18 17 14 16
0 1 1 1 1 1 1 1 0 0 1 1 1 1 1 1 0 -0 3 6 6 7 9 6 7 8 8 9 11 10 8 11 12 14 14 15 17 14 14 15 16 17 18 18 16 15 15
0 0 1 1 1 1 1 2 1 0 1 1 2 2 2 2 2 2 4 5 5 6 10 8 8 8 8 9 10 10 10 12 14 15 15 16 14 13 14 16 17 17 18 18 16 16 16
2 1 1 1 1 2 2 2 2 1 1 1 1 2 2 2 3 3 5 3 6 7 13 12 10 10 10 9 11 10 10 12 14 14 15 15 14 14 16 16 15 18 15 15 16 17 19
2 3 1 1 1 2 2 2 2 2 2 2 1 2 2 1 4 5 5 6 7 8 20 12 12 9 10 10 12 13 11 12 15 14 14 15 15 16 15 15 14 16 15 16 17 18 19
2 2 2 2 1 2 2 2 2 2 3 3 3 2 2 3 4 4 6 6 7 13 19 14 13 14 13 13 13 13 13 12 12 14 15 15 15 14 14 15 14 15 16 17 18 19 22
2 2 2 1 1 2 2 2 2 2 2 3 3 3 3 2 5 5 5 6 13 18 13 15 16 15 14 15 15 14 15 16 16 17 17 16 16 16 15 16 16 16 17 20 22 22 21
3 3 2 2 1 2 2 2 2 2 2 3 3 3 4 2 3 5 5 9 17 14 14 14 15 15 16 15 15 15 16 16 15 17 18 18 19 15 14 15 16 17 17 20 24 24 22
3 4 3 3 2 1 2 2 2 2 2 3 3 3 3 3 4 4 8 15 15 14 12 15 15 17 17 15 16 16 17 17 15 16 17 18 17 16 16 15 15 17 18 16 20 27 24
3 4 4 4 2 1 1 2 2 2 2 3 4 4 5 2 3 5 10 13 12 10 11 13 15 15 18 16 17 18 18 16 15 14 14 15 18 16 15 15 15 15 14 18 19 24 26
2 3 4 5 5 2 2 1 2 2 2 3 4 7 5 2 4 7 13 12 10 9 10 12 13 14 16 15 16 18 17 15 14 15 13 14 15 17 15 16 16 16 17 17 17 19 23
2 2 3 4 5 4 2 2 1 2 3 4 7 10 6 2 9 9 12 10 9 9 10 11 11 12 14 14 16 17 16 14 13 12 15 13 15 20 17 16 16 16 16 16 18 20 21
2 2 3 3 3 3 2 1 1 2 2 5 9 10 7 7 13 12 10 10 10 12 11 12 12 12 12 13 14 15 15 13 12 12 13 13 17 23 20 17 17 17 16 16 16 18 22
2 1 2 3 4 3 3 3 1 1 2 5 9 12 10 9 10 11 12 12 12 11 11 11 11 12 13 14 13 15 15 14 13 13 11 11 16 18 19 18 17 18 17 16 17 21 20
2 2 2 3 4 4 4 4 4 4 4 5 9 11 11 14 12 11 11 12 13 13 11 11 12 12 12 14 13 15 15 14 13 11 13 13 18 18 18 17 17 17 17 17 18 16 17
2 2 2 2 4 4 4 4 4 5 5 9 11 12 11 12 10 11 12 13 14 13 12 13 13 12 12 14 13 16 14 14 14 14 14 15 18 18 20 17 17 18 17 17 16 17 17
2 2 2 2 3 4 4 5 5 5 6 11 11 11 12 12 12 12 13 13 13 11 11 11 11 12 13 12 12 13 13 12 12 14 15 15 17 19 19 20 19 19 18 17 17 16 15
1 2 2 2 2 2 3 4 4 5 6 9 10 11 13 15 14 12 12 11 11 11 12 13 12 12 14 13 13 14 15 15 14 16 14 17 18 17 23 20 22 18 20 18 15 15 16
1 1 1 2 2 2 2 3 3 4 6 8 8 10 13 15 13 15 14 13 12 13 15 14 15 14 13 14 16 17 18 16 18 19 17 16 16 21 22 22 19 19 20 20 19 19 17
1 1 1 1 1 2 2 2 3 4 4 7 8 8 11 13 14 12 14 14 15 17 17 18 16 14 14 15 16 19 21 19 21 22 18 16 16 16 23 22 23 20 20 18 17 21 18
1 1 1 1 1 1 1 1 2 3 4 7 8 7 10 14 12 12 14 14 13 14 17 17 17 16 15 17 20 19 20 18 21 23 23 20 20 18 22 21 21 19 18 17 22 19 20
1 1 1 1 1 1 1 1 1 2 3 7 10 8 10 13 13 12 12 14 14 13 16 16 16 16 17 17 17 19 20 20 21 21 21 21 21 22 21 22 22 17 17 18 16 16 16
1 1 1 1 1 1 1 1 1 1 1 4 9 8 9 13 13 11 11 11 11 10 13 15 14 16 14 16 18 19 21 21 21 23 19 21 19 21 19 19 17 15 15 14 13 14 14